Silver Bay, MN

8:20 PM CDT on July 22, 2017 (GMT -0500)
Silver Bay Municipal

Weather History for KBFW - April, 2014

Change the Weather History Date:

Saturday, April 19, 2014

  Actual Average Record
Temperature  
Mean Temperature 32 °F -  
Max Temperature 37 °F 45 °F 64 °F (2005)
Min Temperature 26 °F 25 °F 17 °F (2011)
Degree Days  
Heating Degree Days 34    
Moisture  
Dew Point 30 °F    
Average Humidity 95    
Maximum Humidity 100    
Minimum Humidity 86    
Precipitation  
Precipitation 0.14 in - - ()
Sea Level Pressure  
Sea Level Pressure 30.12 in    
Wind  
Wind Speed 8 mph (NE)    
Max Wind Speed 16 mph    
Max Gust Speed 23 mph    
Visibility 9 miles    
Events Rain    
Averages and records for this station are not official NWS values.
T = Trace of Precipitation, MM = Missing Value Source: NWS Daily Summary

Daily Weather History Graph

Daily Weather History Graph

Search for Another Location

Airport or City:

Trip Planner

Search our weather history database for the weather conditions in past years. The results will help you decide how hot, cold, wet, or windy it might be!

Date:

Astronomy

Apr. 19, 2014 Rise Set
Actual Time 6:10 AM CDT 8:00 PM CDT
Civil Twilight 5:37 AM CDT 8:33 PM CDT
Nautical Twilight 4:57 AM CDT 9:13 PM CDT
Astronomical Twilight 4:13 AM CDT 9:57 PM CDT
Moon No Moon Rise 9:19 AM CDT (4/19)
Length of Visible Light 14h 55m
Length of Day
13h 50m
Waning Gibbous, 78% of the Moon is Illuminated
Apr 19
Waning Gibbous
Apr 22
Last Quarter
Apr 29
New
May 6
First Quarter
May 14
Full

Hourly Weather History & Observations

Time (CDT) Temp. Windchill Dew Point Humidity Pressure Visibility Wind Dir Wind Speed Gust Speed Precip Events Conditions
12:13 AM 28.4 °F 20.4 °F 26.6 °F 93% 30.33 in 10.0 mi ENE 8.1 mph - N/A   Clear
12:33 AM 28.4 °F 19.7 °F 26.6 °F 93% 30.32 in 10.0 mi NE 9.2 mph - N/A   Clear
12:54 AM 28.4 °F 21.2 °F 26.6 °F 93% 30.33 in 10.0 mi NE 6.9 mph - N/A   Clear
1:13 AM 28.4 °F 18.5 °F 26.6 °F 93% 30.33 in 10.0 mi NE 11.5 mph - N/A   Clear
1:34 AM 28.4 °F 20.4 °F 26.6 °F 93% 30.31 in 10.0 mi NE 8.1 mph 16.1 mph N/A   Clear
1:53 AM 30.2 °F 20.8 °F 26.6 °F 86% 30.31 in 10.0 mi NE 11.5 mph - N/A   Clear
2:14 AM 30.2 °F 20.8 °F 26.6 °F 86% 30.31 in 10.0 mi NE 11.5 mph - N/A   Clear
2:33 AM 30.2 °F 21.9 °F 26.6 °F 86% 30.30 in 10.0 mi NE 9.2 mph - N/A   Clear
2:54 AM 30.2 °F 21.3 °F 26.6 °F 86% 30.30 in 10.0 mi NE 10.4 mph 17.3 mph N/A   Clear
3:13 AM 30.2 °F 21.3 °F 26.6 °F 86% 30.30 in 10.0 mi NE 10.4 mph 16.1 mph N/A   Clear
3:33 AM 30.2 °F 20.8 °F 28.4 °F 93% 30.29 in 10.0 mi ENE 11.5 mph 18.4 mph N/A   Clear
4:14 AM 30.2 °F 20.2 °F 28.4 °F 93% 30.28 in 10.0 mi ENE 12.7 mph 17.3 mph N/A   Clear
4:33 AM 30.2 °F 20.2 °F 28.4 °F 93% 30.25 in 10.0 mi ENE 12.7 mph 16.1 mph N/A   Clear
4:54 AM 30.2 °F 21.3 °F 28.4 °F 93% 30.24 in 10.0 mi ENE 10.4 mph - N/A   Clear
5:14 AM 30.2 °F 20.8 °F 28.4 °F 93% 30.22 in 10.0 mi ENE 11.5 mph 17.3 mph N/A   Clear
5:33 AM 30.2 °F 21.9 °F 28.4 °F 93% 30.23 in 10.0 mi ENE 9.2 mph - N/A   Clear
5:53 AM 30.2 °F 20.8 °F 28.4 °F 93% 30.22 in 10.0 mi ENE 11.5 mph - N/A   Clear
6:13 AM 30.2 °F 21.3 °F 28.4 °F 93% 30.24 in 10.0 mi NE 10.4 mph - N/A   Clear
7:14 AM 30.2 °F 21.3 °F 28.4 °F 93% 30.20 in 7.0 mi ENE 10.4 mph 16.1 mph N/A Rain Light Freezing Rain
7:33 AM 30.2 °F 21.9 °F 30.2 °F 100% 30.21 in 7.0 mi ENE 9.2 mph 17.3 mph 0.03 in Rain Light Freezing Rain
7:54 AM 30.2 °F 20.8 °F 30.2 °F 100% 30.21 in 7.0 mi ENE 11.5 mph 17.3 mph 0.01 in Rain Light Freezing Rain
8:14 AM 30.2 °F 20.2 °F 30.2 °F 100% 30.18 in 7.0 mi ENE 12.7 mph - 0.05 in Rain Light Freezing Rain
8:35 AM 30.2 °F 21.3 °F 30.2 °F 100% 30.17 in 7.0 mi ENE 10.4 mph 16.1 mph 0.08 in Rain Light Freezing Rain
8:53 AM 30.2 °F 21.9 °F 30.2 °F 100% 30.17 in 7.0 mi ENE 9.2 mph - 0.01 in Rain Light Freezing Rain
9:13 AM 30.2 °F 21.9 °F 30.2 °F 100% 30.18 in 7.0 mi ENE 9.2 mph - 0.03 in Rain Light Freezing Rain
9:33 AM 30.2 °F 21.3 °F 30.2 °F 100% 30.17 in 7.0 mi ENE 10.4 mph - 0.03 in   Light Freezing Rain
9:54 AM 30.2 °F 22.6 °F 30.2 °F 100% 30.16 in 10.0 mi ENE 8.1 mph - N/A Rain Light Freezing Rain
10:13 AM 30.2 °F 21.3 °F 30.2 °F 100% 30.16 in 10.0 mi ENE 10.4 mph - N/A   Overcast
10:34 AM 30.2 °F 21.9 °F 30.2 °F 100% 30.14 in 10.0 mi ENE 9.2 mph - N/A   Overcast
10:53 AM 30.2 °F 21.3 °F 30.2 °F 100% 30.14 in 10.0 mi NE 10.4 mph - N/A   Overcast
11:13 AM 30.2 °F 20.2 °F 30.2 °F 100% 30.12 in 7.0 mi ENE 12.7 mph 17.3 mph N/A   Overcast
11:34 AM 30.2 °F 20.8 °F 30.2 °F 100% 30.11 in 10.0 mi NE 11.5 mph - N/A   Light Freezing Rain
11:53 AM 30.2 °F 20.8 °F 30.2 °F 100% 30.10 in 10.0 mi ENE 11.5 mph - N/A   Mostly Cloudy
12:14 PM 30.2 °F 20.8 °F 30.2 °F 100% 30.08 in 10.0 mi ENE 11.5 mph - N/A   Scattered Clouds
12:34 PM 30.2 °F 22.6 °F 30.2 °F 100% 30.08 in 10.0 mi NE 8.1 mph - N/A   Clear
12:53 PM 32.0 °F 22.1 °F 30.2 °F 93% 30.07 in 10.0 mi NE 13.8 mph 19.6 mph N/A   Light Drizzle
1:13 PM 32.0 °F 21.2 °F 30.2 °F 93% 30.06 in 10.0 mi NE 16.1 mph 23.0 mph N/A   Clear
1:34 PM 32.0 °F 23.0 °F 30.2 °F 93% 30.05 in 10.0 mi NE 11.5 mph 18.4 mph N/A   Clear
1:53 PM 32.0 °F 23.6 °F 30.2 °F 93% 30.05 in 10.0 mi NE 10.4 mph 16.1 mph N/A   Clear
2:14 PM 32.0 °F 26.4 °F 30.2 °F 93% 30.04 in 10.0 mi NNE 5.8 mph - N/A   Light Drizzle
2:33 PM 32.0 °F 27.5 °F 30.2 °F 93% 30.03 in 10.0 mi NE 4.6 mph - N/A   Clear
2:53 PM 32.0 °F 25.6 °F 32.0 °F 100% 30.03 in 10.0 mi NE 6.9 mph - N/A   Clear
3:14 PM 32.0 °F 28.7 °F 32.0 °F 100% 30.02 in 10.0 mi NE 3.5 mph - N/A   Clear
3:33 PM 33.8 °F 29.6 °F 32.0 °F 93% 30.03 in 10.0 mi NNE 4.6 mph - N/A   Clear
3:55 PM 33.8 °F 29.6 °F 32.0 °F 93% 30.01 in 10.0 mi NE 4.6 mph - N/A   Clear
4:14 PM 33.8 °F 29.6 °F 32.0 °F 93% 30.01 in 10.0 mi NE 4.6 mph - N/A   Clear
4:34 PM 33.8 °F - 33.8 °F 100% 30.01 in 10.0 mi Calm Calm - N/A   Clear
4:53 PM 35.6 °F 32.8 °F 33.8 °F 93% 30.00 in 10.0 mi NNE 3.5 mph - N/A   Clear
5:13 PM 37.4 °F - 33.8 °F 87% 30.00 in 10.0 mi Calm Calm - N/A   Clear
5:33 PM 37.4 °F - 33.8 °F 87% 30.01 in 10.0 mi Calm Calm - N/A   Clear
5:54 PM 37.4 °F - 33.8 °F 87% 30.01 in 10.0 mi Calm Calm - N/A   Clear
6:13 PM 37.4 °F - 33.8 °F 87% 30.00 in 10.0 mi Calm Calm - N/A   Clear
6:33 PM 37.4 °F 34.9 °F 35.6 °F 93% 30.00 in 10.0 mi ENE 3.5 mph - N/A   Clear
6:53 PM 37.4 °F 34.9 °F 35.6 °F 93% 30.00 in 10.0 mi NE 3.5 mph - N/A   Clear
7:13 PM 37.4 °F - 35.6 °F 93% 30.00 in 10.0 mi Calm Calm - N/A   Clear
7:34 PM 35.6 °F 32.8 °F 33.8 °F 93% 30.00 in 10.0 mi NNE 3.5 mph - N/A   Clear
7:54 PM 33.8 °F 30.8 °F 33.8 °F 100% 30.00 in 10.0 mi NNE 3.5 mph - N/A   Clear
8:13 PM 33.8 °F - 33.8 °F 100% 30.00 in 10.0 mi Calm Calm - N/A   Clear
8:34 PM 32.0 °F - 32.0 °F 100% 30.00 in 10.0 mi Calm Calm - N/A   Clear
8:54 PM 30.2 °F - 30.2 °F 100% 30.00 in 7.0 mi Calm Calm - N/A   Clear
9:14 PM 30.2 °F - 30.2 °F 100% 30.01 in 7.0 mi Calm Calm - N/A   Clear
9:34 PM 28.4 °F - 28.4 °F 100% 30.01 in 5.0 mi Calm Calm - N/A   Clear
9:53 PM 28.4 °F - 28.4 °F 100% 30.01 in 4.0 mi Calm Calm - N/A   Clear
10:14 PM 28.4 °F - 28.4 °F 100% 30.01 in 3.0 mi Calm Calm - N/A   Clear
10:35 PM 28.4 °F - 28.4 °F 100% 30.00 in 4.0 mi Calm Calm - N/A   Clear
10:53 PM 28.4 °F - 28.4 °F 100% 30.00 in 3.0 mi Calm Calm - N/A   Clear
11:14 PM 28.4 °F - 28.4 °F 100% 30.00 in 4.0 mi Calm Calm - N/A   Clear
11:34 PM 26.6 °F - 26.6 °F 100% 29.99 in 5.0 mi Calm Calm - N/A   Clear
11:53 PM 26.6 °F - 26.6 °F 100% 29.99 in 5.0 mi Calm Calm - N/A   Clear